Flag for Germany Weather past 2 weeks in Rüsselsheim, Hesse, Germany

Now
44 °F

Mostly cloudy.


Feels Like: 38 °F
Forecast: 43 / 49 °F
Wind: 13 mph from Southwest

Location: Wiesbaden Airport

Current Time: Dec 21, 2014 at 5:19:12 PM

Latest Report: Dec 21, 2014 at 4:58 PM


Visibility: N/A

Pressure: 30.40 "Hg

Humidity: 82%

Dew point: 39 °F

Location of RüsselsheimLocation

Historic Weather in Rüsselsheim — Graph

°F

Rüsselsheim temperature yesterday

Maximum temperature yesterday: 44 °F (at 5:58 PM)
Minimum temperature yesterday: 36 °F (at 6:58 AM)
Average temperature yesterday: 41 °F

Past Weeks' High & Low Weather Summary

 TemperatureHumidityPressure
High55 °F (Dec 18, 9:01 PM)100% (Dec 6, 11:58 PM)30.48 "Hg (Dec 6, 11:58 PM)
Low31 °F (Dec 8, 9:58 PM)70% (Dec 9, 1:00 PM)29.62 "Hg (Dec 12, 6:58 PM)
Average41 °F92%30.05 "Hg
* Reported Dec 6 3:58 PM — Dec 21 3:58 PM, Rüsselsheim, Weather by CustomWeather, © 2014

Note: Actual official high and low records may vary slightly from our data, if they occured in-between our weather recording intervals... More about our weather records

Advertising

Rüsselsheim weather history for previous 24 hours

 ConditionsComfort  
Time TempWeatherWind HumidityBarometerVisibility
3:58 PM
Dec 21
45 °FMostly cloudy.12 mph81%30.41 "HgN/A
2:58 PM45 °FOvercast.10 mph81%30.43 "HgN/A
1:58 PM45 °FMostly cloudy.8 mph76%30.44 "HgN/A
12:58 PM45 °FOvercast.8 mph81%30.46 "HgN/A
11:58 AM43 °FOvercast.7 mph85%30.48 "HgN/A
10:58 AM41 °FSunny.6 mph87%30.48 "HgN/A
9:58 AM41 °FOvercast.9 mph87%30.48 "HgN/A
8:58 AM39 °FMostly cloudy.12 mph90%30.47 "HgN/A
7:58 AM39 °FPassing clouds.7 mph93%30.47 "HgN/A
6:58 AM37 °FOvercast.5 mph100%30.46 "HgN/A
5:58 AM37 °FPassing clouds.7 mph98%30.46 "HgN/A
4:58 AM39 °FPassing clouds.8 mph93%30.45 "HgN/A
3:58 AM39 °FPassing clouds.9 mph93%30.45 "HgN/A
2:59 AM39 °FPassing clouds.13 mph93%30.41 "HgN/A
1:58 AM39 °FClear.9 mph93%30.40 "HgN/A
12:58 AM41 °FLight rain. Mostly cloudy.9 mph87%30.40 "HgN/A
12:04 AM41 °FLight rain. Partly cloudy.6 mph87%30.36 "HgN/A
11:58 PM
Dec 20
40 °FPassing clouds.9 mph88%30.38 "HgN/A
10:58 PM38 °FClear.8 mph89%30.35 "HgN/A
10:02 PM41 °FPartly cloudy.17 mph87%30.29 "HgN/A
9:03 PM41 °FHeavy rain. Fog.15 mph87%30.28 "Hg4 mi
9:02 PM43 °FHeavy rain. Overcast.18 mph81%30.29 "Hg5 mi
7:58 PM43 °FPassing clouds.12 mph79%30.23 "HgN/A
6:58 PM44 °FPartly cloudy.13 mph76%30.21 "HgN/A
5:58 PM44 °FOvercast.13 mph75%30.19 "HgN/A
Weather by CustomWeather, © 2014

See weather overviewHow to use our weather pages